Back to catalog

BREEZE-M DEB

LostHEO
NORAD 38642·DEBRIS·🇷🇺 Russia

Launched Mar 14, 2008 from Baikonur Cosmodrome

Loading…

Next Passes (next 24 hours)

TLE

StaleSource: Space-Track

Epoch: Dec 20, 2025, 01:16 UTC

1 38642U 08011CR  25354.05295196 -.00000708  00000-0 -21098-1 0  9997
2 38642  48.7483  18.7215 6362014 246.5936  81.4627  3.08632421 17858

Track BREEZE-M DEB in real time with AllMySat

Download on the App Store